Regional Weather Roundup
Issued by NWS Green Bay, WI

Home | Current Version | Previous Version | Graphics & Text | Print | Product List | Glossary Off
Versions: 1 2 3 4 5 6 7 8 9 10 11 12 13 14 15 16 17 18 19 20 21 22 23 24 25 26 27 28 29 30 31 32 33 34 35 36 37 38 39 40 41 42 43 44 45 46 47 48 49 50

000
ASUS43 KGRB 020810
RWRGRB

NORTH-CENTRAL AND NORTHEAST WISCONSIN REGIONAL WEATHER ROUNDUP
NATIONAL WEATHER SERVICE GREEN BAY WI
300 AM CDT THU OCT 02 2014

WIZ005-009-010>012-018-019-020900-
NORTH CENTRAL WISCONSIN

CITY           SKY/WX    TMP DP  RH WIND       PRES   REMARKS
IRONWOOD       NOT AVBL
MANITOWISH WTR CLOUDY    54  54 100 S3        29.86F
ARBOR VITAE    CLOUDY    57  55  93 S3        29.87F FOG
EAGLE RIVER    CLOUDY    53  53  99 CALM      29.87F FOG
LAND O LAKES   CLOUDY    54  52  94 S3        29.88F FOG
RHINELANDER    CLOUDY    51  50  96 SE3       29.88F FOG
PHILLIPS       MOCLDY    51  51 100 CALM      29.85F FOG
ANTIGO         CLOUDY    52  52  99 SE5       29.88F FOG
TOMAHAWK       PTCLDY    51  49  95 CALM      29.87F FOG
MERRILL        CLOUDY    53  53 100 CALM      29.86F FOG
$$

WIZ013-073-020900-
NORTHEAST WISCONSIN

CITY           SKY/WX    TMP DP  RH WIND       PRES   REMARKS
IRON MOUNTAIN  CLOUDY    53  52  96 SE3       29.88F FOG
MARINETTE      NOT AVBL
OCONTO         CLOUDY    54  54 100 CALM      29.88F VSB 3/4
$$

WIZ017-030-035>037-045-020900-
CENTRAL WISCONSIN

CITY           SKY/WX    TMP DP  RH WIND       PRES   REMARKS
MEDFORD        MOCLDY    53  51  95 E3        29.85F FOG
WAUSAU         CLOUDY    55  52  89 SE6       29.85F
MOSINEE        CLOUDY    54  54 100 CALM      29.87F
MARSHFIELD     MOCLDY    56  53  90 E6        29.84F
WISC RAPIDS    CLOUDY    57  55  93 CALM      29.86F
STEVENS POINT  DRIZZLE   53  52  97 CALM      29.86F
WAUPACA        CLOUDY    58  56  94 CALM      29.87F FOG
SHAWANO        CLOUDY    57  54  91 NE3       29.88F FOG
CLINTONVILLE   CLOUDY    54  54 100 CALM      29.87F FOG
$$

WIZ038-039-048-051-020900-
FOX VALLEY

CITY           SKY/WX    TMP DP  RH WIND       PRES   REMARKS
NWS GREEN BAY  CLOUDY    57  56  96 CALM      29.87F
APPLETON       CLOUDY    55  54  94 N3        29.87F FOG
OSHKOSH        CLOUDY    57  56  96 CALM      29.85F
FOND DU LAC    CLOUDY    58  54  86 CALM      29.85F
$$

WIZ022-050-052-020900-
EAST CENTRAL WISCONSIN

CITY           SKY/WX    TMP DP  RH WIND       PRES   REMARKS
STURGEON BAY   NOT AVBL
MANITOWOC      NOT AVBL
SHEBOYGAN      CLOUDY    60  56  86 S10       29.88F
$$

LMZ563-521-522-541>543-020900-
LAKESHORE

STATION/POSITION TIME  TEMP    WIND        PRES    VSBY  WAVE
                       AIR SEA DIR/SP/G                  HT/PER
                 (UTC) (F)     (DEG/KT/KT) (MB)    (MI)  (FT/S)
SHEBOYGAN LKSHOR 0800   57 56  160/  7/  7 1011.9F
KEWAUNEE LKSHORE 0800   56     170/  6/  8 1011.2F
NORTHPORT PIER   0800   56     150/  8/ 11 1012.9S
N MID LAKE BUOY  0800   58 58  180/ 10/ 12 1013.4F         2/ 5
S GREEN BAY BUOY 0700   59     VRB  6/  8  1013.0F
SISTER BAY LKSHO 0700          170/ 11/ 17   N/A
CHAMBERS ISLAND  0800   56     160/  2/  6 1012.5F
MENOMINEE LKSHOR 0800   57     160/  6/  8 1012.6F
$$


USA.gov is the U.S. government's official web portal to all federal, state and local government web resources and services.